Regional Weather Roundup
Issued by NWS

Home | Current Version | Previous Version | Text Only | Print | Product List | Glossary On
Versions: 1 2 3 4 5 6 7 8 9 10 11 12 13 14 15 16 17 18 19 20 21 22 23 24 25 26 27 28 29 30 31 32 33 34 35 36 37 38 39 40 41 42 43 44 45 46 47 48 49 50
000
ASPQ40 PGUM 151812
RWRPQ
WEATHER ROUNDUP FOR THE MARIANAS AND MICRONESIA
NATIONAL WEATHER SERVICE TIYAN GU
400 AM CHST SAT DEC 16 2017

GUZ001>004-151900-
MARIANA ISLANDS-

CITY           SKY/WX    TMP DP  RH WIND       PRES   REMARKS
GUAM AIRPORT   PTCLDY    81  79  94 E14       29.80F
ANDERSEN AFB   PTCLDY    79  75  89 NE20      29.81S
ROTA AIRPORT   NOT AVBL
TINIAN AP      NOT AVBL
SAIPAN AP      MOCLDY    81  75  83 E12       29.82S

$$

PMZ161-151900-
REPUBLIC OF PALAU-

CITY           SKY/WX    TMP DP  RH WIND       PRES   REMARKS
KOROR AP       CLOUDY    81  75  83 SW12G20   29.75S
KOROR WSO      CLOUDY    82  75  78 SW15      29.76S

$$

PMZ171>174-151900-
FEDERATED STATES OF MICRONESIA-

CITY           SKY/WX    TMP DP  RH WIND       PRES   REMARKS
YAP AIRPORT    MOCLDY    79  77  94 VRB5      29.74F
CHUUK AP       MOCLDY    84  81  89 NE12      29.72R HX  98
POHNPEI AP     NOT AVBL
POHNPEI WSO    PTCLDY    81  75  83 E6        29.78S
KOSRAE AP      NOT AVBL

$$

PMZ181-151900-
REPUBLIC OF THE MARSHALL ISLANDS-

CITY           SKY/WX    TMP DP  RH WIND       PRES   REMARKS
KWAJALEIN AP   PTCLDY    81  75  83 E16       29.80R
MAJURO AP      NOT AVBL
MAJURO WSO     MOCLDY    82  73  74 E9        29.77R

$$




USA.gov is the U.S. government's official web portal to all federal, state and local government web resources and services.